Location: Katowice
(50.2611°N, 19.0242°E)
Time: 11:17:34
(UTC+02:00)

Tiros 1 - Pass Details

Date: 02 September 2019
Orbit: 631 x 664 km, 48.4° (Epoch: 17 September)

Event Time Altitude Azimuth Distance (km) Brightness Sun altitude
Rises 22:00:16 0° 248° (WSW) 2,916 10.8 -22.0°
Reaches altitude 10° 22:02:36 10° 244° (WSW) 2,008 9.9 -22.3°
Enters shadow 22:06:28 52° 203° (SSW) 781 7.3 -22.7°
